Location: Maccacari
(45.1333°N, 11.1333°E)
Time: 08:45:41
(UTC+00:00)

Tiros 1 - Visible Passes

Search period start: 24 January 2021 00:00
Search period end: 03 February 2021 00:00
Orbit: 630 x 663 km, 48.4° (Epoch: 24 January)

Date Brightness Start Highest point End Pass type
(mag) Time Alt. Az. Time Alt. Az. Time Alt. Az.
24 Jan 7.0 17:56:18 10° WSW 18:00:57 87° SSE 18:02:24 44° ENE visible
24 Jan 9.7 19:38:48 10° W 19:40:04 18° WNW 19:40:04 18° WNW visible
25 Jan 7.6 16:40:23 10° SW 16:44:52 49° SSE 16:49:20 10° ENE visible
25 Jan 7.1 18:22:23 10° W 18:27:02 67° NNW 18:27:23 64° NNE visible
25 Jan 10.3 20:04:58 10° WNW 20:05:02 10° WNW 20:05:02 10° WNW visible
26 Jan 7.1 17:06:07 10° WSW 17:10:47 83° SSE 17:14:40 15° ENE visible
26 Jan 7.8 18:48:37 10° W 18:52:19 48° NW 18:52:19 48° NW visible
27 Jan 7.2 17:32:11 10° W 17:36:50 69° NNW 17:39:36 24° ENE visible
27 Jan 8.8 19:14:47 10° WNW 19:17:15 30° WNW 19:17:15 30° WNW visible
28 Jan 7.4 17:58:24 10° W 18:03:00 57° N 18:04:31 38° NE visible
28 Jan 9.6 19:40:52 10° WNW 19:42:11 19° WNW 19:42:11 19° WNW visible
29 Jan 7.2 18:24:36 10° WNW 18:29:12 58° N 18:29:27 57° NNE visible
29 Jan 10.2 20:06:56 10° WNW 20:07:07 11° WNW 20:07:07 11° WNW visible
30 Jan 7.4 17:08:12 10° W 17:12:49 58° N 17:16:45 14° ENE visible
30 Jan 7.6 18:50:42 10° WNW 18:54:25 54° NW 18:54:25 54° NW visible
31 Jan 7.3 17:34:25 10° WNW 17:39:01 58° N 17:41:44 23° ENE visible
31 Jan 8.6 19:16:44 10° WNW 19:19:24 34° WNW 19:19:24 34° WNW visible
01 Feb 7.1 18:00:31 10° WNW 18:05:10 70° NNE 18:06:46 39° E visible
01 Feb 9.5 19:42:51 10° WNW 19:44:27 20° W 19:44:27 20° W visible
02 Feb 7.0 18:26:33 10° WNW 18:31:13 81° SSW 18:31:53 64° SE visible
02 Feb 10.2 20:09:18 10° W 20:09:33 11° W 20:09:33 11° W visible
